CZ-6A DEB, 55216

Orbit data source: Space-Track

CZ-6A DEB, 55216 is space debris in SSO originally from a launch on Fri, 11 Nov 2022 UTC launched from the Taiyaun Space Center, China (TSC). Debris objects in space refer to the collection of defunct objects orbiting the Earth. Examples of debris include non-operational satellites, rocket bodies, and fragments generated from explosions, collisions, or faulty payload assembly.

Loading next visibility...
Identifier
55216, 2022-151WH
Orbit
SSO
Country
Flag of CNCN / PRC
Related business
Manufacturer
SAST
Mission
Spacecraft
Bus & Motor
Unknown
Mass
Unknown
Launch date (UTC)
2022-11-11 (4 years ago)
Launch vehicle
Unknown
Launch site
Taiyaun Space Center, China (TSC)
Object type
Payload
Rocket body
Debris
Shape & HBR
Unknown shape, 0.1 m
Radar Cross Section
Small (<0.1 m²)

Expand to show TLE details & history
Last TLE update: 3 days ago

TLE from 3 days ago
0 CZ-6A DEB
1 55216U 22151WH  26170.11441964  .00006805  00000-0  12374-2 0  9994
2 55216  98.6071 225.1161 0071905 300.3554  59.0550 14.64806863184690
Epoch: 2026-06-19T02:44Z
TLE epoch observation values (Epoch: 2026-06-19T02:44:45.856Z)
Latitude
-0.00011°
Longitude
-83.42299°
Altitude
654.85 km
Speed
7.544 km/s
True Right ascension
15h 00m 27s
True Declination
0° 00' 00"
Sunlit
Object was in full shadow at epoch
Visualization orbit readout
Latitude
Unknown
Longitude
Unknown
Altitude
Unknown
Speed
Unknown
Apparent Right ascension
Unknown
Apparent Declination
Unknown
Sunlit
N/A
Visualization observer readout
Local Sidereal Time
21:30:00
Azimuth
Unknown
Elevation
Unknown
Doppler factor
Unknown
Orbital elements
Apogee altitude
725.503 km
Perigee altitude
624.075 km
Semi-major axis
7,052.926 km
Eccentricity
0.00719
Inclination
98.6071°
RAAN
225.1161°
Arg. of periapsis
300.3554°
True anomaly
59.76495°
Mean anomaly
59.055°
Eccentric anomaly
59.40965°
Mean motion
3.66428 °/min
Orbital period
98.25 mins
BSTAR
0.0012374
Loading maneuver chart data...
Computing Atmospheric mass density...
Loading historical data...
Loading historical data...
Loading historical data...
Loading historical data...
Loading historical data...
Loading historical data...
Loading historical data...

Documentation

Showing up to 5 results
|